Location: Elende
(51.4317°N, 10.6316°E)
Time: 03:44:46
(UTC+00:00)

Cosmos 2263 Rocket - Pass Details

Date: 18 September 2020
Orbit: 822 x 849 km, 71.0° (Epoch: 22 October)

Event Time Altitude Azimuth Distance (km) Brightness Sun altitude
Rises 19:33:05 0° 236° (WSW) 3,353 5.7 -20.0°
Reaches altitude 10° 19:35:41 10° 245° (WSW) 2,426 5.0 -20.3°
Maximum altitude 19:40:50 38° 313° (NW) 1,257 3.6 -21.0°
Drops below altitude 10° 19:46:03 10° 21° (NNE) 2,452 4.7 -21.7°
Sets 19:48:41 0° 29° (NNE) 3,394 5.4 -22.0°
